Location: Cañada de la Miga
(34.7595°N, 106.2317°W)
Time: 12:41:43
(UTC+00:00)

A-11 Canister half - Pass Details

Date: 01 December 2021
Orbit: 1516 x 1684 km, 47.2° (Epoch: 26 January)

Event Time Altitude Azimuth Distance (km) Brightness Sun altitude
Rises 12:06:28 0° 190° (S) 4,700 11.6 -21.7°
Reaches altitude 10° 12:10:09 10° 178° (S) 3,743 11.2 -21.0°
Maximum altitude 12:17:33 26° 126° (SE) 2,745 11.0 -19.5°
Drops below altitude 10° 12:25:06 10° 75° (ENE) 3,860 12.0 -18.0°
Sets 12:28:56 0° 63° (ENE) 4,875 12.4 -17.2°
